Skip Page Navigation
NASA JPL Caltech
NASA Logo - Jet Propulsion Laboratory + View the NASA Portal
+ Center for Near-Earth Object Studies
JPL Home Earth Solar System Stars & Galaxies Technology
JPL Solar System Dynamics
BODIES ORBITS EPHEMERIDES TOOLS PHYSICAL DATA DISCOVERY FAQ SITE MAP
JPL Small-Body Database Browser
Search: [ help ]  
56765 (2000 OD25)
Classification: Main-belt Asteroid          SPK-ID: 2056765
Ephemeris | Orbit Diagram | Orbital Elements | Mission Design | Physical Parameters | Discovery Circumstances | Close-Approach Data ]

[ show orbit diagram ]
Orbital Elements at Epoch 2459000.5 (2020-May-31.0) TDB
Reference: JPL 21 (heliocentric ecliptic J2000)
 Element Value Uncertainty (1-sigma)   Units 
e .1561847877774117 3.2011e-08  
a 2.739375317798613 1.2016e-08 au
q 2.311526565145557 8.8773e-08 au
i 3.217473061337237 4.4577e-06 deg
node 48.19602204568525 6.6488e-05 deg
peri 248.8223376244996 6.8231e-05 deg
M 140.717671297296 1.5986e-05 deg
tp 2458353.175755474316
(2018-Aug-22.67575547)
7.2158e-05 TDB
period 1656.058730085908
4.53
1.0896e-05
2.983e-08
d
yr
n .2173835948326089 1.4303e-09 deg/d
Q 3.167224070451669 1.3892e-08 au
  Orbit Determination Parameters
   # obs. used (total)      1002  
   data-arc span      10667 days (29.20 yr)  
   first obs. used      1991-08-02  
   last obs. used      2020-10-15  
   planetary ephem.      DE431  
   SB-pert. ephem.      SB431-N16  
   condition code      0  
   norm. resid. RMS      .49835  
   source      ORB  
   producer      Otto Matic  
   solution date      2020-Nov-12 22:57:54  

Additional Information
 Earth MOID = 1.2981 au 
 Jupiter MOID = 2.03942 au 
 T_jup = 3.331 
[ show covariance matrix ]

Ephemeris | Orbit Diagram | Orbital Elements | Mission Design | Physical Parameters | Discovery Circumstances | Close-Approach Data ]

Physical Parameter Table
Parameter Symbol Value Units Sigma Reference Notes
absolute magnitude H 14.9   n/a MPO452941  

56765 (2000 OD25)          Discovered 2000-Jul-23 by LINEAR at Socorro
Reference: 20030318/Numbers.arcLast Updated: 2004-04-19

[ show close-approach data ]
Alternate Designations
 2000 OD25 = 1991 PL3 
Ephemeris | Orbit Diagram | Orbital Elements | Mission Design | Physical Parameters | Discovery Circumstances | Close-Approach Data ]
ABOUT SSD CREDITS/AWARDS PRIVACY/COPYRIGHT GLOSSARY LINKS
FirstGov 2020-Nov-24 09:40 UT
(server date/time)  
NASA Home Page
Site Manager:   Ryan S. Park
Webmaster  Alan B. Chamberlin